#timestamp,LO_Frequency,Hit,StdDev 
1634756415.0,286047000.1,N
1634756415.9,286047000.1,N
1634756435.7,286047001.9,N
1634756455.6,286046999.8,N
1634756475.4,286047000.8,N
1634756495.3,286047001.1,N
1634756515.1,286046998.1,N
1634756516.0,286046998.1,N
1634756535.8,286046998.7,N
1634756555.7,286046998.2,N
1634756575.5,286046998.9,N
1634756595.3,286046999.3,N
1634756615.2,286046998.4,N
1634756635.0,286047001.0,N
1634756635.9,286047001.0,N
1634756655.8,286047000.5,N
1634756675.6,286046999.9,N
1634756695.4,286047000.9,N
1634756715.3,286046999.9,N
1634756735.1,286047000.0,N
1634756755.9,286047000.5,N
1634756775.7,286047001.0,N
1634756795.5,286047000.3,N
1634756815.4,286047002.0,N
1634756835.2,286047002.6,N
1634756855.0,286047002.1,N
1634756855.9,286047002.1,N
1634756875.8,286047001.5,N
1634756895.6,286047001.8,N
1634756915.5,286047001.8,N
1634756935.3,286047004.3,Y
1634756955.1,286047004.4,P
1634756975.9,286047001.9,N
1634756995.7,286047002.3,N
1634757015.5,286047000.3,N
1634757035.4,286047000.5,N
1634757055.2,286046999.7,N
1634757075.1,286047000.7,N
1634757076.0,286047000.7,N
1634757095.8,286047000.6,N
1634757115.6,286047000.3,N
1634757135.5,286047000.1,N
1634757155.3,286047000.4,N
1634757175.2,286046998.6,N
1634757195.9,286047000.3,N
1634757215.7,286047000.0,N
1634757235.6,286047000.4,N
1634757255.4,286047000.0,N
1634757275.2,286047002.8,N
1634757295.1,286047002.4,N
1634757296.0,286047002.4,N
1634757315.8,286046999.9,N
1634757335.7,286047000.0,N
1634757355.5,286046999.7,N
1634757375.3,286047002.2,N
1634757395.2,286047000.4,N
1634757415.0,286047000.1,N
1634757415.9,286047000.1,N
1634757435.7,286047000.1,N
1634757455.6,286047002.7,N
1634757475.4,286047000.3,N
1634757495.3,286047001.8,N
1634757515.1,286047009.5,Y
1634757535.8,286047008.7,P
1634757555.7,286047004.6,N
1634757575.5,286047004.0,N
1634757595.4,286047003.1,N
1634757615.2,286047001.3,N
1634757635.0,286047001.3,N
1634757635.9,286047001.3,N
1634757655.8,286047003.8,N
1634757675.6,286047003.1,N
1634757695.4,286047006.0,N
1634757715.3,286047005.6,N
1634757735.1,286047003.5,N
1634757755.9,286047004.2,N
1634757775.7,286047003.9,N
1634757795.5,286047001.4,N
1634757815.4,286047001.9,N
1634757835.2,286047002.0,N
1634757855.0,286047004.3,N
1634757855.9,286047004.3,N
1634757875.8,286047002.8,N
1634757895.6,286046999.7,N
1634757915.5,286046999.7,N
1634757935.3,286047000.2,N
1634757955.1,286046999.8,N
1634757975.9,286046999.8,N
1634757995.7,286047002.2,N
1634758015.6,286047002.5,N
1634758035.4,286047001.9,N
1634758055.2,286047001.5,N
1634758075.1,286047001.6,N
1634758076.0,286047001.6,N
1634758095.8,286047002.0,N
1634758115.6,286047001.6,N
1634758135.5,286046999.7,N
1634758155.3,286047001.0,N
1634758175.2,286047002.2,N
1634758195.9,286047002.5,N
1634758215.7,286047002.3,N
1634758235.6,286047000.4,N
1634758255.4,286047000.4,N
1634758275.2,286047000.1,N
1634758295.1,286047000.3,N
1634758296.0,286047000.3,N
1634758315.8,286047000.7,N
1634758335.7,286047000.3,N
1634758355.5,286047001.2,N
1634758375.3,286046999.9,N
1634758395.2,286047000.9,N
1634758415.0,286047000.9,N
1634758415.9,286047000.9,N
1634758435.7,286047000.9,N
1634758455.6,286046999.8,N
1634758475.4,286047000.6,N
1634758495.3,286047000.1,N
1634758515.1,286047000.1,N
1634758516.0,286047000.1,N
1634758535.8,286047000.7,N
1634758555.7,286047000.5,N
1634758575.5,286047000.1,N
1634758595.3,286047002.6,Y
1634758615.2,286047000.7,P
1634758635.0,286046998.1,P
1634758635.9,286046998.1,N
1634758655.8,286046998.1,N
1634758675.6,286047002.3,N
1634758695.4,286047000.9,N
1634758715.3,286047000.6,N
1634758735.1,286046998.7,N
1634758755.9,286046999.0,N
1634758775.7,286047001.1,N
1634758795.5,286047000.7,N
1634758815.4,286047000.9,N
1634758835.2,286047000.5,N
1634758855.0,286047000.9,N
1634758855.9,286047000.9,N
1634758875.8,286046998.6,N
1634758895.6,286046998.9,N
1634758915.5,286046996.9,N
1634758935.3,286046999.2,N
1634758955.1,286046996.6,N
1634758975.9,286046999.4,N
1634758995.7,286046996.5,N
1634759015.5,286046997.0,N
1634759035.4,286046996.9,N
1634759055.2,286046997.0,N
1634759075.1,286046996.5,N
1634759076.0,286046996.5,N
1634759095.8,286046997.6,N
1634759115.6,286046999.6,N
1634759135.5,286046999.2,N
1634759155.3,286046997.0,N
1634759175.1,286046999.4,N
1634759195.9,286046997.3,N
1634759215.7,286046997.8,N
1634759235.6,286046999.6,N
1634759255.4,286046999.4,N
1634759275.2,286046999.0,N
1634759295.1,286046998.4,N
1634759296.0,286046998.4,N
1634759315.8,286046998.9,N
1634759335.7,286046999.4,N
1634759355.5,286047000.9,N
1634759375.3,286046998.5,N
1634759395.2,286046998.1,N
1634759415.0,286046998.6,N
1634759415.9,286046998.6,N
1634759435.7,286046998.9,N
1634759455.6,286046998.5,N
1634759475.4,286046999.0,N
1634759495.3,286046999.1,N
1634759515.1,286047001.2,N
1634759516.0,286047001.2,N
1634759535.8,286047000.0,N
1634759555.7,286047002.8,N
1634759575.5,286047000.6,N
1634759595.4,286047000.1,N
1634759615.2,286046999.9,N
1634759635.0,286047002.7,N
1634759635.9,286047002.7,N
1634759655.8,286047001.0,N
1634759675.6,286046998.3,N
1634759695.4,286046998.8,N
1634759715.3,286046998.2,N
1634759735.1,286047001.2,N
1634759755.9,286046998.8,N
1634759775.7,286046999.4,N
1634759795.5,286046999.3,N
1634759815.4,286046998.3,N
1634759835.2,286046998.1,N
1634759855.1,286046999.5,N
1634759856.0,286046999.5,N
1634759875.8,286046999.4,N
1634759895.6,286046999.3,N
1634759915.5,286046999.3,N
1634759935.3,286046999.0,N
1634759955.1,286046999.1,N
1634759975.9,286046999.3,N
1634759995.7,286046998.6,N
